カタログに戻る

COSMOS 416

運用中軍事LEO
NORAD 5215·PAYLOAD·🇷🇺 Russia

打ち上げ May 7, 1971 から Plesetsk Cosmodrome

Loading…

次のパス (今後24時間)

TLE

最新Source: Space-Track

元期: Sep 14, 2026, 10:50 UTC

1 05215U 71041F   26257.45190381  .00000009  00000-0  15270-3 0  9996
2 05215  74.0162 155.0201 0077958 257.3470 276.7858 12.58072766542012

AllMySatでCOSMOS 416をリアルタイム追跡

Download on the App Store